Location: Taunton
(51.0167°N, 3.1000°W)
Time: 12:29:51
(UTC+01:00)

ISS - Visible Passes

Search period start: 14 May 2021 00:00
Search period end: 24 May 2021 00:00
Orbit: 417 x 422 km, 51.6° (Epoch: 14 May)

Date Brightness Start Highest point End Pass type
(mag) Time Alt. Az. Time Alt. Az. Time Alt. Az.
14 May -1.7 00:18:38 18° E 00:18:38 18° E 00:19:35 10° E visible
14 May -3.7 01:51:31 30° W 01:53:04 78° N 01:56:28 10° E visible
14 May -3.8 03:26:32 10° W 03:29:53 62° SSW 03:33:14 10° ESE visible
14 May -1.9 21:51:08 10° SSE 21:52:38 12° SE 21:54:08 10° ESE visible
14 May -3.6 23:25:34 10° SW 23:28:50 49° SSE 23:32:07 10° E visible
15 May -3.7 01:02:12 10° W 01:05:36 80° N 01:08:58 10° E visible
15 May -3.9 02:39:05 10° WNW 02:42:28 78° S 02:45:51 10° ESE visible
15 May -2.6 04:16:10 10° W 04:18:58 24° SW 04:21:45 10° SSE visible
15 May -3.2 22:38:21 10° SW 22:41:28 36° SSE 22:44:36 10° E visible
16 May -3.8 00:14:44 10° W 00:18:07 87° N 00:21:31 10° E visible
16 May -3.9 01:51:37 10° W 01:55:01 89° N 01:58:24 10° E visible
16 May -3.1 03:28:32 10° W 03:31:38 34° SSW 03:34:43 10° SE visible
16 May -2.7 21:51:18 10° SSW 21:54:09 26° SSE 21:57:00 10° E visible
16 May -3.9 23:27:17 10° WSW 23:30:40 81° SSE 23:34:03 10° E visible
17 May -3.7 01:04:09 10° W 01:07:32 81° N 01:10:56 10° E visible
17 May -3.6 02:41:00 10° W 02:44:16 46° SSW 02:47:31 10° SE visible
17 May -1.8 04:19:16 10° WSW 04:20:27 12° SW 04:21:41 10° SSW visible
17 May -3.8 22:39:53 10° WSW 22:43:13 65° SSE 22:46:35 10° ENE visible
18 May -3.7 00:16:41 10° W 00:20:03 78° N 00:22:53 14° E visible
18 May -2.9 01:53:31 10° W 01:55:46 37° W 01:55:46 37° W visible
18 May -3.5 21:52:33 10° SW 21:55:49 49° SSE 21:59:05 10° E visible
18 May -3.7 23:29:11 10° W 23:32:34 80° N 23:35:58 10° E visible
19 May -3.9 01:06:03 10° WNW 01:09:22 77° SSW 01:09:22 77° SSW visible
19 May -3.8 22:41:42 10° W 22:45:04 87° NNW 22:48:29 10° E visible
20 May -3.9 00:18:35 10° W 00:21:58 89° NNE 00:23:11 37° E visible
20 May -1.4 01:55:31 10° W 01:56:07 14° W 01:56:07 14° W visible
20 May -3.8 21:54:14 10° WSW 21:57:37 81° SSE 22:01:00 10° E visible
20 May -3.7 23:31:06 10° W 23:34:29 81° N 23:37:05 16° E visible
21 May -2.6 01:07:57 10° W 01:10:01 31° WSW 01:10:01 31° WSW visible
21 May -3.6 22:43:36 10° W 22:46:59 78° N 22:50:22 10° E visible
22 May -3.8 00:20:27 10° W 00:23:48 61° SSW 00:23:58 60° S visible
22 May -3.6 21:56:07 10° W 21:59:29 80° N 22:02:52 10° E visible
22 May -3.9 23:32:59 10° WNW 23:36:20 77° SSW 23:37:57 28° ESE visible
23 May -1.5 01:10:03 10° W 01:10:53 15° W 01:10:53 15° W visible
23 May -3.8 22:45:29 10° W 22:48:52 89° N 22:51:57 12° E visible
